This is the latest recevied weather packets stored in our database for station/object N4RCT. If no packets are shown the sender has not sent any weather packets the latest 10 day(s).
| Time | Temp. | Humidity | Pressure | Rain* | Wind** | Luminosity | Snow |
|---|---|---|---|---|---|---|---|
| 1778035659 | 20° C | 66% | 1012.3 hPa | 0 mm | - | 0 W/m² | - |
| 1778035356 | 20.56° C | 68% | 1012.3 hPa | 0 mm | - | 0 W/m² | - |
| 1778035052 | 20.56° C | 67% | 1012.3 hPa | 0 mm | - | 0 W/m² | - |
| 1778034749 | 20° C | 67% | 1012.2 hPa | 0 mm | - | 0 W/m² | - |
| 1778034446 | 20° C | 67% | 1012.2 hPa | 0 mm | - | 0 W/m² | - |
| 1778034143 | 20.56° C | 67% | 1012 hPa | 0 mm | - | 0 W/m² | - |
| 1778033841 | 20.56° C | 66% | 1012 hPa | 0 mm | - | 0 W/m² | - |
| 1778033538 | 20° C | 65% | 1012.1 hPa | 0 mm | - | 0 W/m² | - |
| 1778033235 | 20° C | 64% | 1012 hPa | 0 mm | - | 0 W/m² | - |
| 1778032933 | 20° C | 64% | 1012.1 hPa | 0 mm | - | 0 W/m² | - |
| 1778032630 | 20° C | 64% | 1011.9 hPa | 0 mm | - | 0 W/m² | - |
| 1778032328 | 20.56° C | 66% | 1012.1 hPa | 0 mm | - | 0 W/m² | - |
| 1778032025 | 20.56° C | 65% | 1011.7 hPa | 0 mm | - | 0 W/m² | - |
| 1778031720 | 20.56° C | 63% | 1011.9 hPa | 0 mm | - | 0 W/m² | - |
| 1778031418 | 20.56° C | 63% | 1011.8 hPa | 0 mm | - | 0 W/m² | - |
| 1778031115 | 21.11° C | 63% | 1011.7 hPa | 0 mm | - | 0 W/m² | - |
| 1778030811 | 21.11° C | 63% | 1011.7 hPa | 0 mm | - | 0 W/m² | - |
| 1778030508 | 20.56° C | 60% | 1011.7 hPa | 0 mm | - | 0 W/m² | - |
| 1778030206 | 20.56° C | 60% | 1011.9 hPa | 0 mm | - | 0 W/m² | - |
| 1778029902 | 21.11° C | 60% | 1012 hPa | 0 mm | - | 0 W/m² | - |
| 1778029601 | 21.11° C | 59% | 1011.9 hPa | 0 mm | - | 0 W/m² | - |
| 1778029297 | 21.11° C | 62% | 1011.8 hPa | 0 mm | - | 0 W/m² | - |
| 1778028994 | 21.11° C | 59% | 1011.7 hPa | 0 mm | - | 0 W/m² | - |
| 1778028691 | 21.11° C | 58% | 1011.5 hPa | 0 mm | - | 0 W/m² | - |
| 1778028387 | 21.11° C | 57% | 1011.6 hPa | 0 mm | - | 0 W/m² | - |
* Rain latest hour (hover to see other rain measurements)
** Current wind speed in m/s (hover to see current wind gust speed)